Powrót do katalogu

STARLINK-35105

AktywnyŁącznośćSSO
NORAD 65543·PAYLOAD·🇺🇸 United States

Wystrzelony Sep 6, 2025 z Cape Canaveral Space Force Station

Loading…

Następne Przeloty (najbliższe 24 godziny)

TLE

ŚwieżeSource: CelesTrak SupGP

Epoka: Sep 14, 2026, 20:51 UTC

1 65543C 25200Z   26257.86923611 -.00030836  00000+0 -95706-3 0  2578
2 65543  97.2851 324.3309 0001057 109.2345  42.7712 15.33460583    10

Śledź STARLINK-35105 w czasie rzeczywistym z AllMySat

Download on the App Store